LARES                   
1 38077U 12006A   19264.80202561 -.00000025  00000-0  80856-4 0  9999
2 38077  69.4932 174.7978 0010385 215.6427 144.3905 12.54931060348481
ALMASAT-1               
1 38078U 12006B   19264.79588626  .00037758  44178-5  18853-3 0  9995
2 38078  69.4274 353.2642 0138319 113.8227  24.6649 15.69375689412371